Location: Observatory
(52.1446°N, 0.4624°W)
Time: 14:13:52
(UTC+00:00)

ISS - Pass Details

Date: 25 March 2019
Orbit: 408 x 411 km, 51.6° (Epoch: 25 March)

Event Time Altitude Azimuth Distance (km) Brightness Sun altitude
Rises 20:50:10 0° 260° (W) 2,335 0.7 -21.8°
Reaches altitude 10° 20:52:15 10° 259° (W) 1,474 -0.4 -22.1°
Enters shadow 20:54:25 38° 253° (WSW) 646 -2.6 -22.4°
